User: anonymous   Login
Location: Unspecified
(43.4680°N, 87.1740°E)
Time: 05:25:43
(UTC+00:00)
Language:

Cosmos 1844 Rocket - Orbit

View from above orbital plane
View from above orbital plane
View from above satellite
View from above satellite

Ground track
Ground track

The orbit data is extracted from the following two-line orbital elements,

1 17974U 87041B   21171.18740278 -.00000016  00000-0  15883-4 0  9994
2 17974  71.0072  65.2450 0015451 311.8465 211.7192 14.17273914763876
Epoch (UTC): 20 June 2021 04:29:51
Eccentricity: 0.0015451
inclination: 71.0072°
perigee height: 823 km
apogee height: 846 km
right ascension of ascending node: 65.2450°
argument of perigee: 311.8465°
revolutions per day: 14.17273914
mean anomaly at epoch: 211.7192°
orbit number at epoch: 76387

The dashed part of the orbit path shows where the satellite is in the earth's shadow,  

DLR